Back to catalog

FENGYUN 1C DEB

LostSSO
NORAD 32213·DEBRIS·🇨🇳 China

Launched May 10, 1999 from Taiyuan Satellite Launch Center

Loading…

Next Passes (next 24 hours)

TLE

StaleSource: Space-Track

Epoch: Aug 25, 2014, 06:43 UTC

1 32213U 99025CVK 14237.28037211  .00000355  00000-0  24783-3 0  9997
2 32213  99.2064 248.1045 0181517  28.4296 332.6626 13.97395558361004

Track FENGYUN 1C DEB in real time with AllMySat

Download on the App Store